Date String (YYYY-MM-DD hh:mm:ss) UTC,Instrument flags,absolute air pressure of the measurement (hPa),sample flow rate (lpm),inlet stack bypass flow (lpm),air temperature of the measurement (°C),ambient temperature measured by the external sensor (°C),aerosol sample conditioner tube jacket temperature (°C),OPC LED temperature (°C),internal box temperature (°C),relative humidity of the measurement (%),span deviation,mass concentration of particles derived from Lorenz-Mie calculation of OPC scattering (μg/m³),mass concentration of particles derived from Lorenz-Mie calculation of OPC scattering (μg/m³),mass concentration of particles derived from Lorenz-Mie calculation of OPC scattering (μg/m³)
DateTimeUTC,F1_M11,P_M11,Q1_M11,Q2_M11,T1_M11,T2_M11,T3_M11,T4_M11,T5_M11,U1_M11,ZSPAN_M11,X0_M11,X2_M11,X1_M11
2023-09-11 16:00:00,SystemResetWarning,0838.4,5.00,000.00,029.4,028.1,000.0,037.6,031.0,30.8,-000.9,0011.64,0007.13,0006.64
2023-09-11 16:01:00,SystemResetWarning,0838.3,5.01,000.00,029.4,028.1,000.0,037.7,031.1,31.0,-001.2,0011.58,0007.07,0006.60
2023-09-11 16:02:00,SystemResetWarning,0838.4,5.01,000.00,029.4,028.1,000.0,037.7,031.1,31.0,-001.2,0011.57,0007.04,0006.59
2023-09-11 16:03:00,SystemResetWarning,0838.4,4.99,000.00,029.4,028.1,000.0,037.7,031.1,31.0,-001.4,0011.28,0006.99,0006.56
2023-09-11 16:04:00,SystemResetWarning,0838.3,5.00,000.00,029.4,028.1,000.0,037.7,031.1,31.0,-001.4,0010.93,0006.96,0006.53
2023-09-11 16:05:00,SystemResetWarning,0838.4,5.00,000.00,029.5,028.1,000.0,037.7,031.1,30.9,-001.4,0010.77,0006.92,0006.48
2023-09-11 16:06:00,SystemResetWarning,0838.4,5.00,000.00,029.5,028.1,000.0,037.7,031.1,31.0,-001.3,0011.01,0006.85,0006.40
2023-09-11 16:07:00,SystemResetWarning,0838.4,5.01,000.00,029.5,028.1,000.0,037.7,031.1,31.0,-001.3,0010.96,0006.78,0006.33
2023-09-11 16:08:00,SystemResetWarning,0838.4,5.01,000.00,029.5,028.2,000.0,037.7,031.1,30.7,-001.3,0010.83,0006.71,0006.27
2023-09-11 16:09:00,SystemResetWarning,0838.4,5.00,000.00,029.5,028.2,000.0,037.8,031.1,30.6,-001.4,0010.80,0006.65,0006.22
2023-09-11 16:10:00,SystemResetWarning,0838.4,4.99,000.00,029.5,028.0,000.0,037.8,031.1,30.5,-001.5,0010.76,0006.61,0006.18
2023-09-11 16:11:00,SystemResetWarning,0838.3,4.99,000.00,029.5,026.4,000.0,037.7,030.8,30.5,-001.6,0010.80,0006.59,0006.16
2023-09-11 16:12:00,SystemResetWarning,0838.3,5.01,000.00,029.4,025.0,000.0,037.6,030.5,30.8,-001.4,0010.75,0006.56,0006.13
2023-09-11 16:13:00,SystemResetWarning,0838.3,5.01,000.00,029.2,024.8,000.0,037.5,030.3,31.1,-001.4,0010.69,0006.53,0006.09
2023-09-11 16:14:00,SystemResetWarning,0838.3,5.00,000.00,029.1,025.1,000.0,037.5,030.1,31.5,-001.6,0010.66,0006.49,0006.05
2023-09-11 16:15:00,SystemResetWarning,0838.3,5.00,000.00,029.0,025.5,000.0,037.5,030.1,31.5,-001.7,0010.64,0006.49,0006.02
2023-09-11 16:16:00,SystemResetWarning,0838.3,5.00,000.00,028.9,025.8,000.0,037.5,030.1,31.7,-001.6,0010.62,0006.43,0005.99
2023-09-11 16:17:00,SystemResetWarning,0838.3,4.99,000.00,028.9,026.2,000.0,037.5,030.2,31.9,-001.7,0010.28,0006.41,0005.98
2023-09-11 16:18:00,SystemResetWarning,0838.4,5.00,000.00,028.9,026.5,000.0,037.5,030.2,31.8,-001.7,0010.19,0006.40,0005.97
2023-09-11 16:19:00,SystemResetWarning,0838.4,5.00,000.00,028.9,026.7,000.0,037.4,030.3,31.9,-001.6,0010.15,0006.38,0005.94
2023-09-11 16:20:00,SystemResetWarning,0838.4,5.00,000.00,028.9,026.9,000.0,037.4,030.3,31.8,-001.8,0010.02,0006.34,0005.92
2023-09-11 16:21:00,SystemResetWarning,0838.5,5.00,000.00,028.9,027.1,000.0,037.4,030.4,31.9,-001.8,0010.10,0006.31,0005.90
2023-09-11 16:22:00,SystemResetWarning,0838.4,5.00,000.00,028.9,027.2,000.0,037.4,030.4,31.9,-001.6,0010.23,0006.28,0005.86
2023-09-11 16:23:00,SystemResetWarning,0838.4,5.00,000.00,028.9,027.3,000.0,037.3,030.5,31.9,-001.6,0010.23,0006.28,0005.86
2023-09-11 16:24:00,SystemResetWarning,0838.4,5.00,000.00,028.9,027.4,000.0,037.3,030.5,31.8,-001.5,0010.23,0006.27,0005.83
2023-09-11 16:25:00,SystemResetWarning,0838.4,5.00,000.00,028.9,027.5,000.0,037.3,030.6,31.9,-001.4,0010.20,0006.27,0005.84
2023-09-11 16:26:00,SystemResetWarning,0838.4,4.99,000.00,029.0,027.6,000.0,037.3,030.6,31.8,-001.2,0010.17,0006.26,0005.85
2023-09-11 16:27:00,SystemResetWarning,0838.4,4.99,000.00,029.0,027.6,000.0,037.3,030.6,31.8,-001.4,0010.09,0006.25,0005.85
2023-09-11 16:28:00,SystemResetWarning,0838.4,4.99,000.00,029.0,027.7,000.0,037.3,030.7,31.9,-001.4,0010.05,0006.25,0005.84
2023-09-11 16:29:00,SystemResetWarning,0838.4,4.99,000.00,029.0,027.7,000.0,037.4,030.7,31.8,-001.2,0010.04,0006.23,0005.82
2023-09-11 16:30:00,SystemResetWarning,0838.4,5.00,000.00,029.0,027.8,000.0,037.4,030.7,31.9,-001.2,0010.06,0006.22,0005.82
2023-09-11 16:31:00,SystemResetWarning,0838.4,5.00,000.00,029.1,027.8,000.0,037.4,030.7,32.1,-001.1,0010.07,0006.23,0005.82
2023-09-11 16:32:00,SystemResetWarning,0838.4,5.00,000.00,029.1,027.8,000.0,037.4,030.8,32.4,-001.1,0010.04,0006.23,0005.82
2023-09-11 16:33:00,SystemResetWarning,0838.4,5.01,000.00,029.1,027.9,000.0,037.4,030.8,32.3,-001.0,0009.65,0006.20,0005.81
2023-09-11 16:34:00,SystemResetWarning,0838.4,5.01,000.00,029.1,027.9,000.0,037.4,030.8,32.0,-000.9,0009.63,0006.19,0005.80
2023-09-11 16:35:00,SystemResetWarning,0838.4,5.00,000.00,029.2,027.9,000.0,037.4,030.8,31.9,-001.1,0009.55,0006.16,0005.81
2023-09-11 16:36:00,SystemResetWarning,0838.4,5.00,000.00,029.2,027.9,000.0,037.4,030.8,31.8,-001.2,0009.57,0006.18,0005.83
2023-09-11 16:37:00,SystemResetWarning,0838.4,4.99,000.00,029.2,027.9,000.0,037.5,030.8,31.5,-001.2,0009.61,0006.19,0005.83
2023-09-11 16:38:00,SystemResetWarning,0838.4,5.00,000.00,029.2,028.0,000.0,037.5,030.9,31.7,-001.2,0009.54,0006.17,0005.82
2023-09-11 16:39:00,SystemResetWarning,0838.4,5.00,000.00,029.2,028.0,000.0,037.5,030.9,31.5,-001.1,0009.52,0006.16,0005.81
2023-09-11 16:40:00,SystemResetWarning,0838.4,5.00,000.00,029.3,028.0,000.0,037.5,030.9,31.5,-001.1,0009.47,0006.15,0005.81
2023-09-11 16:41:00,SystemResetWarning,0838.4,5.00,000.00,029.3,028.0,000.0,037.5,030.9,31.1,-001.1,0009.45,0006.16,0005.82
2023-09-11 16:42:00,SystemResetWarning,0838.4,5.00,000.00,029.3,028.0,000.0,037.5,030.9,30.8,-001.0,0009.45,0006.19,0005.82
2023-09-11 16:43:00,SystemResetWarning,0838.4,5.01,000.00,029.3,028.0,000.0,037.5,030.9,30.8,-000.7,0009.43,0006.19,0005.83
2023-09-11 16:44:00,SystemResetWarning,0838.4,5.00,000.00,029.3,028.0,000.0,037.6,031.0,30.8,-000.7,0009.49,0006.22,0005.86
2023-09-11 16:45:00,SystemResetWarning,0838.4,5.00,000.00,029.3,028.1,000.0,037.6,031.0,30.7,-001.0,0009.60,0006.29,0005.90
2023-09-11 16:46:00,SystemResetWarning,0838.4,5.00,000.00,029.3,028.1,000.0,037.6,031.0,30.5,-001.1,0009.64,0006.32,0005.92
2023-09-11 16:47:00,SystemResetWarning,0838.4,5.00,000.00,029.4,028.1,000.0,037.6,031.0,30.5,-001.3,0009.66,0006.34,0005.93
2023-09-11 16:48:00,SystemResetWarning,0838.4,4.99,000.00,029.4,028.1,000.0,037.6,031.0,30.5,-001.1,0009.61,0006.33,0005.95
2023-09-11 16:49:00,SystemResetWarning,0838.4,5.00,000.00,029.4,028.1,000.0,037.6,031.0,30.5,-000.9,0009.70,0006.35,0005.96
2023-09-11 16:50:00,SystemResetWarning,0838.4,5.00,000.00,029.4,028.1,000.0,037.6,031.0,30.7,-000.8,0009.80,0006.38,0005.98
2023-09-11 16:51:00,SystemResetWarning,0838.4,5.00,000.00,029.4,028.1,000.0,037.7,031.0,30.9,-000.8,0009.87,0006.41,0006.01
2023-09-11 16:52:00,SystemResetWarning,0838.4,5.00,000.00,029.4,028.1,000.0,037.7,031.0,30.7,-000.8,0010.14,0006.41,0006.01
2023-09-11 16:53:00,SystemResetWarning,0838.4,5.00,000.00,029.4,028.1,000.0,037.7,031.0,30.6,-001.2,0010.26,0006.44,0006.04
2023-09-11 16:54:00,SystemResetWarning,0838.4,4.99,000.00,029.5,028.1,000.0,037.7,031.1,30.7,-001.4,0010.45,0006.46,0006.05
2023-09-11 16:55:00,SystemResetWarning,0838.4,5.00,000.00,029.5,028.1,000.0,037.7,031.1,30.8,-001.4,0011.47,0006.48,0006.07
2023-09-11 16:56:00,SystemResetWarning,0838.4,5.00,000.00,029.5,028.2,000.0,037.7,031.1,30.7,-001.6,0011.61,0006.49,0006.08
2023-09-11 16:57:00,SystemResetWarning,0838.4,5.00,000.00,029.5,028.2,000.0,037.7,031.1,30.8,-001.3,0011.84,0006.52,0006.08
2023-09-11 16:58:00,SystemResetWarning,0838.4,5.00,000.00,029.5,028.2,000.0,037.8,031.1,30.8,-001.2,0012.05,0006.50,0006.07
2023-09-11 16:59:00,SystemResetWarning,0838.4,5.00,000.00,029.5,028.2,000.0,037.8,031.1,30.7,-001.1,0012.08,0006.50,0006.07
